Rocky Mount, NC

11:10 AM EST on November 20, 2017 (GMT -0500)
Rocky Mount-Wilson Regional

Weather History for KRWI - March, 2014

Change the Weather History Date:

Sunday, March 9, 2014

  Actual Average Record
Temperature  
Mean Temperature 52 °F -  
Max Temperature 66 °F 60 °F 84 °F (1974)
Min Temperature 39 °F 38 °F 21 °F (1960)
Degree Days  
Heating Degree Days 12    
Growing Degree Days 2 (Base 50)    
Moisture  
Dew Point 38 °F    
Average Humidity 61    
Maximum Humidity 93    
Minimum Humidity 26    
Precipitation  
Precipitation 0.00 in - - ()
Sea Level Pressure  
Sea Level Pressure 30.02 in    
Wind  
Wind Speed 5 mph (West)    
Max Wind Speed 14 mph    
Max Gust Speed 21 mph    
Visibility 10 miles    
Events      
Averages and records for this station are not official NWS values.
T = Trace of Precipitation, MM = Missing Value Source: NWS Daily Summary

Daily Weather History Graph

Daily Weather History Graph

Search for Another Location

Airport or City:

Trip Planner

Search our weather history database for the weather conditions in past years. The results will help you decide how hot, cold, wet, or windy it might be!

Date:

Astronomy

Mar. 09, 2014 Rise Set
Actual Time 7:30 AM EDT 7:13 PM EDT
Civil Twilight 7:05 AM EDT 7:39 PM EDT
Nautical Twilight 6:35 AM EDT 8:09 PM EDT
Astronomical Twilight 6:05 AM EDT 8:38 PM EDT
Moon 1:13 PM EDT (3/9) 3:46 AM EDT (3/9)
Length of Visible Light 12h 34m
Length of Day
11h 43m
First Quarter, 61% of the Moon is Illuminated
Mar 9
First Quarter
Mar 16
Full
Mar 23
Last Quarter
Mar 30
New
Apr 7
First Quarter

Hourly Weather History & Observations

Time (EDT) Temp. Windchill Dew Point Humidity Pressure Visibility Wind Dir Wind Speed Gust Speed Precip Events Conditions
12:53 AM 48.9 °F - 41.0 °F 74% 29.97 in 10.0 mi SSW 5.8 mph - N/A   Clear
1:53 AM 46.9 °F - 41.0 °F 80% 29.97 in 10.0 mi SSW 5.8 mph - N/A   Clear
3:53 AM 46.9 °F - 41.0 °F 80% 29.97 in 10.0 mi SW 5.8 mph - N/A   Clear
4:53 AM 44.1 °F 41.5 °F 39.9 °F 85% 29.97 in 10.0 mi SW 4.6 mph - N/A   Clear
5:53 AM 46.9 °F - 41.0 °F 80% 29.98 in 10.0 mi Calm Calm - N/A   Clear
6:53 AM 41.0 °F 39.0 °F 39.0 °F 93% 30.00 in 10.0 mi West 3.5 mph - N/A   Clear
7:53 AM 46.0 °F 44.8 °F 41.0 °F 83% 30.02 in 10.0 mi West 3.5 mph - N/A   Clear
8:53 AM 48.9 °F - 41.0 °F 74% 30.05 in 10.0 mi WSW 4.6 mph - N/A   Overcast
9:53 AM 53.1 °F - 41.0 °F 64% 30.06 in 10.0 mi WNW 4.6 mph - N/A   Clear
10:53 AM 61.0 °F - 39.0 °F 44% 30.06 in 10.0 mi WNW 9.2 mph - N/A   Clear
11:53 AM 62.1 °F - 37.0 °F 39% 30.06 in 10.0 mi NNW 13.8 mph 20.7 mph N/A   Clear
12:53 PM 64.0 °F - 36.0 °F 35% 30.06 in 10.0 mi NNW 12.7 mph - N/A   Clear
1:53 PM 64.9 °F - 37.0 °F 36% 30.04 in 10.0 mi North 10.4 mph - N/A   Clear
2:53 PM 66.0 °F - 36.0 °F 33% 30.02 in 10.0 mi Variable 3.5 mph - N/A   Clear
3:53 PM 66.0 °F - 34.0 °F 30% 30.01 in 10.0 mi West 10.4 mph - N/A   Clear
4:53 PM 66.9 °F - 30.9 °F 26% 30.01 in 10.0 mi WNW 10.4 mph - N/A   Clear
5:53 PM 64.9 °F - 30.0 °F 27% 30.00 in 10.0 mi NW 9.2 mph - N/A   Clear
6:53 PM 62.1 °F - 33.1 °F 34% 30.02 in 10.0 mi WNW 3.5 mph - N/A   Clear
7:53 PM 50.0 °F - 37.9 °F 63% 30.03 in 10.0 mi Calm Calm - N/A   Clear
8:53 PM 45.0 °F - 37.0 °F 74% 30.04 in 10.0 mi Calm Calm - N/A   Clear
9:53 PM 44.1 °F - 37.0 °F 76% 30.04 in 10.0 mi Calm Calm - N/A   Clear
10:53 PM 42.1 °F - 36.0 °F 79% 30.03 in 10.0 mi Calm Calm - N/A   Clear
11:53 PM 39.9 °F - 36.0 °F 86% 30.02 in 10.0 mi Calm Calm - N/A   Clear
12:53 AM 44.1 °F 40.1 °F 37.9 °F 79% 30.03 in 9.0 mi SSE 6.9 mph - N/A   Clear